Regional Weather Roundup
Issued by NWS

Home | Current Version | Previous Version | Graphics & Text | Print | Product List | Glossary On
Versions: 1 2 3 4 5 6 7 8 9 10 11 12 13 14 15 16 17 18 19 20 21 22 23 24 25 26 27 28 29 30 31 32 33 34 35 36 37 38 39 40 41 42 43 44 45 46 47 48 49 50
000
ASUS43 KLOT 201012
RWRIL

ILLINOIS REGIONAL WEATHER ROUNDUP
NATIONAL WEATHER SERVICE CHICAGO/ROMEOVILLE IL
400 AM CST FRI JAN 20 2017

NOTE: "FAIR" INDICATES FEW OR NO CLOUDS BELOW 12,000 FEET WITH NO
SIGNIFICANT WEATHER AND/OR OBSTRUCTIONS TO VISIBILITY.

* THESE STATIONS ARE NOT UNDER NWS QUALITY CONTROL. THEY ALSO MAY NOT
  REPORT WEATHER SUCH AS PRECIPITATION OR FOG.

ILZ001-002-007-009-015-016-024-201100-
NORTHWEST ILLINOIS

CITY           SKY/WX    TMP DP  RH WIND       PRES   REMARKS
MOLINE         FOG       37  36  96 E3        29.62F VSB 1/4
STERLING*      LGT RAIN  36  36 100 E7        29.63F VSB 3/4 WCI  30
SAVANNA*       CLOUDY    36  36  99 NE5       29.64S FOG     WCI  32
$$

ILZ003-004-008-010-011-017-018-201100-
NORTH CENTRAL ILLINOIS

CITY           SKY/WX    TMP DP  RH WIND       PRES   REMARKS
ROCKFORD       DRIZZLE   38  36  92 E7        29.65F FOG     WCI  33
FREEPORT*      FOG       34  34  99 NE5       29.66F VSB 1/2 WCI  30
ROCHELLE*      FOG       36  36 100 NE7       29.63F VSB 1   WCI  31
DE KALB*       CLOUDY    37  37  98 E8        29.63F FOG     WCI  31
$$

ILZ005-006-012>014-019>023-201100-
NORTHEAST ILLINOIS

CITY           SKY/WX    TMP DP  RH WIND       PRES   REMARKS
CHICAGO-OHARE  DRIZZLE   38  37  97 NE9       29.64F FOG     WCI  31
CHICAGO-MIDWAY DRZL/FOG  37  37 100 NE12      29.64F VSB 1   WCI  29
AURORA         LGT RAIN  39  37  92 NE7       29.62F FOG     WCI  34
LANSING*       LGT RAIN  37  37 100 N6        29.63S WCI  32
JOLIET*        LGT RAIN  39  39  99 NE6       29.63R WCI  35
WAUKEGAN       LGT RAIN  37  36  96 NE9       29.66S FOG     WCI  30
DUPAGE AIRPORT LGT RAIN  39  36  89 E12       29.62F FOG     WCI  32
KANKAKEE*      LGT RAIN  39  39  98 CALM      29.61S
WHEELING       LGT RAIN  38  37  97 NE10      29.66F FOG     WCI  31
MORRIS*        RAIN      37  37  98 CALM      29.61F
ROMEOVILLE*    DRIZZLE   37  37 100 E10       29.63R WCI  30
NORTHERLY ISL    N/A     36  35  96 N8          N/A  WCI  30
$$

LMZ740>746-201100-
SOUTHERN LAKE MICHIGAN

STATION/POSITION SKY/WX   TEMP    WIND        PRES    VSBY  WAVE
                          AIR SEA DIR/SP/G                  HT/PER
                          (F)     (DEG/KT/KT) (MB)    (MI)  (FT/S)
HARRISON CRIB              38      50/ 13/ 14   N/A
BURNHAM HARBOR             36      10/  7/  8   N/A
CALUMET HARBOR             36      20/  7/ 10 1003.1F
BURNS HARBOR               35      70/  9/ 10 1004.1F
MICHIGAN CITY              34      30/ 11/ 11   N/A
$$

ILZ025>027-034>036-040-047-049-050-058-095>099-201100-
WEST-CENTRAL ILLINOIS

CITY           SKY/WX    TMP DP  RH WIND       PRES   REMARKS
QUINCY         FOG       41  41 100 CALM      29.59F VSB 1/4
GALESBURG*     FOG       36  36 100 CALM      29.62S VSB 1/4
MACOMB*        FOG       37  37 100 N6        29.62F VSB 1/2 WCI  33
JACKSONVILLE*  FOG       41  41  99 CALM      29.61F VSB 3/4
PITTSFIELD*    FOG       43  43 100 CALM      29.60F VSB 1/2
$$

ILZ028>032-037-038-041>044-048-051>054-059>061-201100-
CENTRAL ILLINOIS

CITY           SKY/WX    TMP DP  RH WIND       PRES   REMARKS
PONTIAC        LGT RAIN  39  39 100 NE7       29.61F WCI  34
BLOOMINGTON    LGT RAIN  39  39 100 E8        29.59F VSB 3/4 WCI  33
DECATUR        LGT RAIN  43  32  65 E6        29.59S
PEORIA         LGT RAIN  39  39 100 CALM      29.61R VSB 1/2
LACON*         DRZL/FOG  37  37 100 CALM      29.60F VSB 1/4
LINCOLN*       CLOUDY    44  44 100 W7        29.62R FOG
SPRINGFIELD    CLOUDY    44  43  96 SW5       29.63R FOG
TAYLORVILLE    CLOUDY    44  44 100 SW14      29.63R FOG
$$

ILZ033-039-045-046-055>057-062-063-201100-
EAST-CENTRAL ILLINOIS

CITY           SKY/WX    TMP DP  RH WIND       PRES   REMARKS
CHAMPAIGN      RAIN      43  42  97 CALM      29.59S FOG
RANTOUL*       RAIN      43  43  99 N6        29.59S
MATTOON        CLOUDY    46  46 100 SW7       29.59S FOG
PARIS*         DRIZZLE   45  45 100 CALM      29.60R
$$

ILZ079-100>102-201100-
SOUTHWEST ILLINOIS

CITY           SKY/WX    TMP DP  RH WIND       PRES   REMARKS
ALTON          FOG       45  45 100 CALM      29.62F VSB 1/4
BELLEVILLE     CLOUDY    46  46 100 CALM      29.60F
CAHOKIA*       CLOUDY    47  45  93 CALM      29.61F
SPARTA*        CLOUDY    48  48  99 CALM      29.64F FOG
$$

ILZ064>066-069>071-074>076-080>082-084>086-088>090-092>094-201100-
SOUTH-CENTRAL ILLINOIS

CITY           SKY/WX    TMP DP  RH WIND       PRES   REMARKS
CARBONDALE     CLOUDY    52  51  97 SW12      29.65S
CAIRO*         CLOUDY    52  51  97 SW8       29.67S
EFFINGHAM*     CLOUDY    48  48 100 SW7       29.63S FOG
MARION         CLOUDY    54  54 100 SW9       29.66R
MT. VERNON     CLOUDY    51  50  96 SW8       29.64R
CENTRALIA*     CLOUDY    50  50 100 W12       29.63R FOG
SALEM*         CLOUDY    51  49  95 W12       29.63R FOG
METROPOLIS*    CLOUDY    54  53  96 SW12      29.67S FOG
$$

ILZ067-068-072-073-078-083-087-091-201100-
SOUTHEAST ILLINOIS

CITY           SKY/WX    TMP DP  RH WIND       PRES   REMARKS
LAWRENCEVILLE  CLOUDY    52  52 100 SW8       29.62S
FLORA*         CLOUDY    53  53  98 SW7       29.63R FOG
FAIRFIELD*     CLOUDY    51  51 100 SW5       29.63R
HARRISBURG*    DRIZZLE   54  53  96 W7        29.65R
ROBINSON*      MOCLDY    50  50  99 SW7       29.62S
CARMI*         CLOUDY    55  53  95 SW10      29.64R
$$

ABBREVIATIONS USED IN REMARKS
   TC - TEMPERATURE IN CELSIUS
  WCI - WIND CHILL INDEX
   HX - HEAT INDEX
  VSB - VISIBILITY
$$





USA.gov is the U.S. government's official web portal to all federal, state and local government web resources and services.